This is the latest recevied weather packets stored in our database for station/object AC1IX. If no packets are shown the sender has not sent any weather packets the latest 10 day(s).
| Time | Temp. | Humidity | Pressure | Rain* | Wind** | Luminosity | Snow |
|---|---|---|---|---|---|---|---|
| 1777426140 | 13.33° C | 58% | 1017.7 hPa | 0 mm | - | 0 W/m² | - |
| 1777425839 | 13.33° C | 57% | 1017.8 hPa | 0 mm | - | 0 W/m² | - |
| 1777425536 | 13.89° C | 56% | 1017.7 hPa | 0 mm | - | 0 W/m² | - |
| 1777425230 | 13.89° C | 55% | 1017.9 hPa | 0 mm | - | 0 W/m² | - |
| 1777424928 | 14.44° C | 55% | 1017.6 hPa | 0 mm | - | 0 W/m² | - |
| 1777424624 | 14.44° C | 54% | 1017.8 hPa | 0 mm | - | 0 W/m² | - |
| 1777424319 | 14.44° C | 54% | 1017.7 hPa | 0 mm | - | 0 W/m² | - |
| 1777424015 | 14.44° C | 53% | 1017.8 hPa | 0 mm | - | 0 W/m² | - |
| 1777423712 | 14.44° C | 55% | 1017.5 hPa | 0 mm | - | 0 W/m² | - |
| 1777423408 | 14.44° C | 54% | 1017.5 hPa | 0 mm | - | 0 W/m² | - |
| 1777423107 | 15° C | 53% | 1017.6 hPa | 0 mm | - | 0 W/m² | - |
| 1777422803 | 15° C | 52% | 1017.5 hPa | 0 mm | - | 0 W/m² | - |
| 1777422499 | 15° C | 52% | 1017.6 hPa | 0 mm | - | 0 W/m² | - |
| 1777422194 | 15.56° C | 53% | 1017.7 hPa | 0 mm | - | 0 W/m² | - |
| 1777421893 | 15.56° C | 52% | 1017.6 hPa | 0 mm | - | 0 W/m² | - |
| 1777421589 | 15.56° C | 52% | 1017.4 hPa | 0 mm | - | 0 W/m² | - |
| 1777421285 | 15.56° C | 52% | 1017.5 hPa | 0 mm | - | 0 W/m² | - |
| 1777420981 | 16.11° C | 51% | 1017.4 hPa | 0 mm | - | 0 W/m² | - |
| 1777420678 | 16.11° C | 51% | 1017.4 hPa | 0 mm | - | 0 W/m² | - |
| 1777420374 | 16.67° C | 51% | 1017.2 hPa | 0 mm | - | 2 W/m² | - |
| 1777420070 | 16.11° C | 49% | 1017.2 hPa | 0 mm | - | 5 W/m² | - |
| 1777419767 | 16.11° C | 50% | 1017.2 hPa | 0 mm | - | 4 W/m² | - |
| 1777419464 | 16.11° C | 50% | 1017.4 hPa | 0 mm | - | 5 W/m² | - |
| 1777419163 | 16.11° C | 51% | 1017 hPa | 0 mm | - | 8 W/m² | - |
| 1777418858 | 16.67° C | 50% | 1016.8 hPa | 0 mm | - | 6 W/m² | - |
* Rain latest hour (hover to see other rain measurements)
** Current wind speed in m/s (hover to see current wind gust speed)